Weather History for Cape Lisburne, AK

Change the Weather History Date:

Tuesday, January 21, 2014

  Actual Average Record
Temperature  
Mean Temperature 6 °F -  
Max Temperature 9 °F 0 °F 30 °F (2009)
Min Temperature 3 °F -8 °F -29 °F (2006)
Degree Days  
Heating Degree Days 59    
Moisture  
Dew Point 4 °F    
Average Humidity 90    
Maximum Humidity 93    
Minimum Humidity 85    
Precipitation  
Precipitation 0.00 in - - ()
Sea Level Pressure  
Sea Level Pressure 29.56 in    
Wind  
Wind Speed 10 mph (ESE)    
Max Wind Speed 16 mph    
Max Gust Speed -    
Visibility 4 miles    
Events Snow    
Averages and records for this station are not official NWS values.
T = Trace of Precipitation, MM = Missing Value Source: NWS Daily Summary

Daily Weather History Graph

Daily Weather History Graph

Search for Another Location

Airport:

Trip Planner

Search our weather history database for the weather conditions in past years. The results will help you decide how hot, cold, wet, or windy it might be!

Date:

Astronomy

Jan. 21, 2014 Rise Set
Actual Time 12:26 PM AKST 4:06 PM AKST
Civil Twilight 10:50 AM AKST 5:42 PM AKST
Nautical Twilight 9:30 AM AKST 7:02 PM AKST
Astronomical Twilight 8:20 AM AKST 8:12 PM AKST
Moon 12:11 AM AKST (1/21) 11:29 AM AKST (1/21)
Length of Visible Light 6h 52m
Length of Day
3h 40m
Waning Gibbous, 73% of the Moon is Illuminated
Jan 21
Waning Gibbous
Jan 23
Last Quarter
Jan 30
New
Feb 6
First Quarter
Feb 14
Full

Hourly Weather History & Observations

Time (AKST) Temp. Windchill Dew Point Humidity Pressure Visibility Wind Dir Wind Speed Gust Speed Precip Events Conditions
12:33 AM 5.0 °F -10.8 °F 3.2 °F 92% 29.68 in 1.0 mi ESE 11.5 mph - N/A Snow Snow
12:55 AM 4.1 °F -12.0 °F 2.1 °F 91% 29.67 in 1.0 mi East 11.5 mph - N/A Snow Snow
1:13 AM 3.2 °F -12.2 °F 1.4 °F 92% 29.66 in 1.2 mi East 10.4 mph - N/A Snow Snow
1:53 AM 3.2 °F -13.1 °F 1.4 °F 92% 29.65 in 1.2 mi ESE 11.5 mph - N/A Snow Snow
1:55 AM 3.9 °F -12.2 °F 1.9 °F 91% 29.65 in 1.2 mi ESE 11.5 mph - N/A Snow Snow
2:55 AM 3.7 °F -10.6 °F 1.8 °F 91% 29.65 in 1.2 mi ESE 9.2 mph - N/A Snow Snow
3:55 AM 4.1 °F -12.0 °F 2.3 °F 92% 29.63 in 1.5 mi SE 11.5 mph - N/A Snow Light Snow
4:13 AM 5.0 °F -10.0 °F 3.2 °F 92% 29.62 in 2.5 mi SE 10.4 mph - N/A Snow Light Snow
4:53 AM 5.0 °F -9.1 °F 3.2 °F 92% 29.61 in 1.5 mi SE 9.2 mph - N/A Snow Light Snow
4:55 AM 4.5 °F -9.8 °F 2.5 °F 91% 29.61 in 1.8 mi SE 9.2 mph - N/A Snow Light Snow
5:53 AM 5.0 °F -10.0 °F 3.2 °F 92% 29.60 in 2.0 mi SE 10.4 mph - N/A Snow Light Snow
5:55 AM 5.4 °F -10.4 °F 3.0 °F 90% 29.59 in 2.0 mi SSE 11.5 mph - N/A Snow Light Snow
6:13 AM 5.0 °F -9.1 °F 3.2 °F 92% 29.59 in 2.5 mi SE 9.2 mph - N/A Snow Light Snow
6:53 AM 6.8 °F -5.9 °F 3.2 °F 85% 29.59 in 3.0 mi SE 8.1 mph - N/A Snow Light Snow
6:55 AM 6.1 °F -6.8 °F 3.0 °F 87% 29.59 in 4.0 mi SE 8.1 mph - N/A Snow Light Snow
7:13 AM 6.8 °F -6.9 °F 3.2 °F 85% 29.59 in 4.0 mi SE 9.2 mph - N/A Snow Light Snow
7:33 AM 6.8 °F -3.5 °F 3.2 °F 85% 29.58 in 3.0 mi ESE 5.8 mph - N/A Snow Light Snow
7:53 AM 6.8 °F -4.8 °F 3.2 °F 85% 29.58 in 7.0 mi SE 6.9 mph - N/A Snow Light Snow
7:55 AM 6.4 °F -3.9 °F 3.2 °F 87% 29.58 in 6.0 mi SE 5.8 mph - N/A Snow Light Snow
8:12 AM 6.8 °F -5.9 °F 3.2 °F 85% 29.58 in 2.0 mi SSE 8.1 mph - N/A Snow Light Snow
8:13 AM 6.8 °F -5.9 °F 3.2 °F 85% 29.58 in 1.8 mi SSE 8.1 mph - N/A Snow Light Snow
8:34 AM 6.8 °F -4.8 °F 3.2 °F 85% 29.58 in 0.8 mi SE 6.9 mph - N/A Snow Snow
8:40 AM 6.8 °F -4.8 °F 3.2 °F 85% 29.59 in 0.5 mi SE 6.9 mph - N/A Snow Heavy Snow
8:54 AM 6.8 °F -3.5 °F 5.0 °F 92% 29.58 in 1.2 mi SE 5.8 mph - N/A Snow Snow
8:55 AM 6.8 °F -4.8 °F 4.3 °F 89% 29.58 in 1.5 mi SE 6.9 mph - N/A Snow Snow
9:14 AM 6.8 °F -4.8 °F 5.0 °F 92% 29.58 in 4.0 mi SE 6.9 mph - N/A Snow Light Snow
9:15 AM 6.8 °F -3.5 °F 5.0 °F 92% 29.58 in 4.0 mi SE 5.8 mph - N/A Snow Light Snow
9:54 AM 6.8 °F -5.9 °F 5.0 °F 92% 29.57 in 2.5 mi SE 8.1 mph - N/A Snow Light Snow
9:55 AM 7.3 °F -4.1 °F 4.6 °F 89% 29.57 in 2.5 mi SE 6.9 mph - N/A Snow Light Snow
10:14 AM 8.6 °F -3.7 °F 5.0 °F 85% 29.57 in 6.0 mi SE 8.1 mph - N/A Snow Light Snow
10:19 AM 8.6 °F -3.7 °F 5.0 °F 85% 29.57 in 7.0 mi SE 8.1 mph - N/A Snow Light Snow
10:55 AM 8.4 °F -4.9 °F 5.0 °F 86% 29.56 in 7.0 mi SE 9.2 mph - N/A Snow Light Snow
11:54 AM 8.6 °F -3.7 °F 6.8 °F 92% 29.57 in 4.0 mi ESE 8.1 mph - N/A Snow Light Snow
11:55 AM 8.8 °F -2.4 °F 7.0 °F 92% 29.57 in 3.0 mi ESE 6.9 mph - N/A Snow Light Snow
12:14 PM 8.6 °F -5.5 °F 6.8 °F 92% 29.56 in 6.0 mi ESE 10.4 mph - N/A Snow Light Snow
12:34 PM 8.6 °F -5.5 °F 6.8 °F 92% 29.57 in 10.0 mi ESE 10.4 mph - N/A Snow Light Snow
12:54 PM 8.6 °F -5.5 °F 6.8 °F 92% 29.56 in 10.0 mi ESE 10.4 mph - N/A Snow Light Snow
12:55 PM 8.6 °F -5.5 °F 7.0 °F 93% 29.56 in 10.0 mi ESE 10.4 mph - N/A Snow Light Snow
1:30 PM 8.6 °F -4.7 °F 6.8 °F 92% 29.55 in 1.8 mi SE 9.2 mph - N/A Snow Light Snow
1:34 PM 8.6 °F -3.7 °F 6.8 °F 92% 29.55 in 1.5 mi SE 8.1 mph - N/A Snow Light Snow
1:55 PM 9.0 °F -4.2 °F 7.3 °F 93% 29.55 in 1.5 mi ESE 9.2 mph - N/A Snow Light Snow
2:14 PM 8.6 °F -5.5 °F 6.8 °F 92% 29.54 in 4.0 mi ESE 10.4 mph - N/A Snow Light Snow
2:34 PM 8.6 °F -6.3 °F 6.8 °F 92% 29.54 in 3.0 mi East 11.5 mph - N/A Snow Light Snow
2:55 PM 8.1 °F -7.0 °F 6.4 °F 93% 29.54 in 2.5 mi East 11.5 mph - N/A Snow Light Snow
3:14 PM 8.6 °F -6.3 °F 6.8 °F 92% 29.53 in 1.8 mi East 11.5 mph - N/A Snow Light Snow
3:34 PM 8.6 °F -5.5 °F 6.8 °F 92% 29.52 in 8.0 mi East 10.4 mph - N/A Snow Light Snow
3:55 PM 7.9 °F -6.4 °F 5.7 °F 91% 29.52 in 10.0 mi SE 10.4 mph - N/A Snow Light Snow
4:14 PM 8.6 °F -5.5 °F 5.0 °F 85% 29.51 in 10.0 mi ESE 10.4 mph - N/A Snow Light Snow
4:55 PM 7.9 °F -5.5 °F 5.5 °F 90% 29.51 in 10.0 mi ESE 9.2 mph - N/A Snow Light Snow
5:34 PM 6.8 °F -6.9 °F 5.0 °F 92% 29.51 in 10.0 mi ESE 9.2 mph - N/A Snow Light Snow
5:55 PM 7.2 °F -6.4 °F 5.4 °F 92% 29.51 in 10.0 mi ESE 9.2 mph - N/A Snow Light Snow
6:34 PM 6.8 °F -6.9 °F 5.0 °F 92% 29.52 in 10.0 mi ESE 9.2 mph - N/A Snow Light Snow
6:54 PM 6.8 °F -8.6 °F 5.0 °F 92% 29.51 in 10.0 mi ESE 11.5 mph - N/A Snow Light Snow
6:55 PM 7.2 °F -7.3 °F 4.8 °F 90% 29.51 in 10.0 mi ESE 10.4 mph - N/A Snow Light Snow
7:55 PM 6.8 °F -10.0 °F 4.6 °F 91% 29.50 in 5.0 mi ESE 13.8 mph - N/A Snow Light Snow
8:14 PM 6.8 °F -11.3 °F 5.0 °F 92% 29.50 in 4.0 mi ESE 16.1 mph - N/A Snow Light Snow
8:34 PM 6.8 °F -10.7 °F 5.0 °F 92% 29.50 in 3.0 mi East 15.0 mph - N/A Snow Light Snow
8:54 PM 6.8 °F -10.0 °F 5.0 °F 92% 29.50 in 5.0 mi ESE 13.8 mph - N/A Snow Light Snow
8:55 PM 6.3 °F -10.7 °F 4.1 °F 91% 29.50 in 5.0 mi ESE 13.8 mph - N/A Snow Light Snow
9:14 PM 5.0 °F -13.0 °F 3.2 °F 92% 29.50 in 4.0 mi East 15.0 mph - N/A Snow Light Snow
9:34 PM 5.0 °F -13.0 °F 3.2 °F 92% 29.49 in 3.0 mi ESE 15.0 mph - N/A Snow Light Snow
9:54 PM 5.0 °F -11.6 °F 3.2 °F 92% 29.49 in 2.0 mi ESE 12.7 mph - N/A Snow Light Snow
9:55 PM 5.4 °F -11.1 °F 3.2 °F 91% 29.49 in 2.0 mi ESE 12.7 mph - N/A Snow Light Snow
10:14 PM 5.0 °F -13.0 °F 3.2 °F 92% 29.49 in 2.5 mi ESE 15.0 mph - N/A Snow Light Snow
10:34 PM 5.0 °F -11.6 °F 3.2 °F 92% 29.50 in 4.0 mi ESE 12.7 mph - N/A Snow Light Snow
10:54 PM 5.0 °F -13.6 °F 3.2 °F 92% 29.50 in 4.0 mi ESE 16.1 mph - N/A Snow Light Snow
10:55 PM 5.7 °F -12.0 °F 2.8 °F 88% 29.50 in 4.0 mi ESE 15.0 mph - N/A Snow Light Snow
11:14 PM 5.0 °F -13.6 °F 3.2 °F 92% 29.51 in 4.0 mi ESE 16.1 mph - N/A Snow Light Snow
11:34 PM 5.0 °F -13.0 °F 3.2 °F 92% 29.51 in 3.0 mi ESE 15.0 mph - N/A Snow Light Snow
11:54 PM 5.0 °F -11.6 °F 3.2 °F 92% 29.51 in 4.0 mi ESE 12.7 mph - N/A Snow Light Snow
11:55 PM 5.4 °F -11.1 °F 3.0 °F 90% 29.51 in 4.0 mi ESE 12.7 mph - N/A Snow Light Snow